GFSFLT2_sfc_wetblb_000.txt.gz
Wetbulb
68.50 68.58 68.49 67.95 67.85 67.74 68.17 68.50 67.95 67.51 67.48 67.09 67.03 66.45 65.70 65.04 64.54 63.96 63.52 63.23 63.05 62.50 62.56 62.46 62.42 62.47 62.71 63.07 63.42 63.90 67.75 67.87
67.90 68.73 68.49 68.82 68.68 66.24 66.89 67.18 67.52 66.64 66.27 65.52 65.45 65.44 64.36 63.38 62.33 63.21 62.81 62.43 62.12 61.85 61.34 60.65 60.74 61.44 61.48 61.26 61.06 62.57 67.06 67.61
68.55 68.29 68.39 68.97 68.76 67.62 65.86 65.97 66.56 66.49 66.40 65.03 65.51 68.73 67.75 65.31 62.84 62.29 62.01 61.73 61.28 60.29 59.26 58.04 57.78 59.52 60.08 59.92 60.50 65.43 65.14 66.37
68.89 69.25 68.58 68.71 67.32 68.91 68.77 68.22 69.94 70.03 69.29 68.85 68.45 68.17 68.08 65.58 64.69 62.37 61.74 60.76 59.95 59.60 59.61 59.74 60.44 62.23 63.08 61.42 63.40 63.73 63.83 64.15
68.82 69.32 69.24 68.31 67.82 69.20 68.44 68.35 68.80 69.55 69.17 69.09 68.56 68.15 67.66 67.10 66.75 65.93 65.87 62.86 64.54 63.26 64.03 63.14 62.57 62.27 61.56 62.16 61.92 61.88 61.84 62.33
69.14 69.17 69.26 69.35 68.21 67.82 68.77 67.42 67.70 67.17 67.92 68.90 68.09 67.11 66.60 66.18 65.06 64.48 64.49 64.26 64.34 63.79 63.62 63.00 60.57 59.23 59.27 59.46 59.01 58.56 59.39 61.03
69.54 70.06 69.51 68.70 68.87 68.39 68.28 67.78 66.94 67.12 67.03 67.12 67.78 66.15 65.51 64.87 63.94 63.23 62.98 63.40 63.16 62.87 62.22 60.35 57.04 56.10 57.22 57.17 56.45 57.07 58.21 58.20
70.25 69.94 69.38 67.40 67.30 67.96 67.27 67.54 66.01 66.06 65.22 65.09 66.37 66.30 64.58 63.01 61.82 61.02 61.06 61.41 62.12 62.01 60.94 58.91 57.11 56.36 56.33 57.01 56.16 56.44 56.83 57.10
69.43 69.17 67.19 66.45 65.38 66.01 65.85 65.07 63.82 63.51 63.16 63.99 64.18 64.38 63.02 62.53 61.02 60.86 61.02 61.51 62.16 62.37 61.34 59.35 57.54 56.12 55.59 56.13 56.02 56.10 55.64 55.65
68.26 66.39 64.81 64.38 64.80 65.43 65.14 64.82 64.40 63.33 63.38 63.07 63.11 63.07 63.11 62.30 60.95 60.75 61.42 61.47 60.88 60.59 60.18 58.63 57.41 55.78 55.13 55.34 55.55 55.51 55.12 55.35
66.82 65.89 61.65 62.08 63.71 64.68 64.55 64.09 63.24 62.03 61.89 61.20 61.45 61.65 61.80 61.63 60.53 60.60 61.53 60.66 60.14 59.88 59.33 58.77 57.12 55.88 54.78 55.11 55.57 55.18 55.11 54.26
66.25 63.31 62.12 63.26 64.64 63.70 61.95 61.16 61.44 60.64 59.86 59.07 59.14 59.10 59.60 59.91 59.77 60.52 61.07 60.08 59.39 58.94 58.89 58.69 57.33 56.15 53.94 53.57 54.71 55.34 55.34 54.71
63.98 62.46 59.70 60.69 60.43 57.99 58.18 57.37 58.09 58.64 58.64 58.63 58.72 58.49 58.36 58.37 58.15 58.54 59.12 58.62 58.82 59.16 58.74 57.82 57.07 57.11 54.33 53.63 54.13 55.19 55.28 54.49
59.17 57.64 57.67 57.66 58.48 57.91 57.73 57.15 57.69 57.70 57.91 57.89 57.64 56.44 56.24 56.07 56.64 56.58 56.95 56.55 57.13 57.60 57.59 56.48 56.99 57.41 53.55 52.53 49.48 51.84 53.91 54.15
57.36 57.30 57.15 56.84 56.96 57.05 57.62 57.97 57.06 55.76 55.25 55.00 54.77 54.94 54.72 55.06 55.32 55.37 55.65 55.42 54.41 55.27 55.73 55.28 53.67 55.95 57.01 52.60 49.13 47.55 51.04 53.59
56.93 56.42 56.14 55.53 55.76 55.24 54.67 53.57 52.40 53.49 53.74 54.03 53.81 54.08 53.82 53.73 53.85 54.34 54.31 54.14 53.57 53.54 53.43 53.76 53.52 51.96 54.10 54.89 55.20 53.43 48.51 46.74
56.58 56.27 55.62 55.07 54.50 54.69 54.13 53.34 53.39 53.66 53.35 52.32 52.17 52.61 52.97 52.79 52.67 52.79 53.01 52.80 52.61 52.69 52.54 52.48 52.55 51.87 51.52 51.43 50.55 51.52 51.34 47.53
55.88 54.96 54.20 54.84 54.53 53.74 53.01 52.74 52.56 51.77 51.07 50.20 50.46 50.82 51.10 51.66 51.27 51.69 51.60 50.99 50.71 50.51 50.73 49.89 49.71 49.01 48.46 47.17 46.41 41.82 43.48 44.83
53.45 53.60 53.01 53.90 53.62 51.65 51.97 52.04 51.97 50.98 50.37 49.49 48.71 48.75 49.15 50.12 50.19 50.17 49.98 49.80 49.34 50.10 49.86 48.38 45.17 43.75 42.91 41.60 40.69 39.62 39.62 39.66
53.82 52.25 51.89 52.18 51.34 51.22 51.87 52.49 52.01 50.70 49.94 48.82 47.97 47.92 48.85 49.68 49.14 49.26 49.10 49.16 48.94 48.72 45.74 43.73 44.50 44.11 43.40 41.81 41.14 41.88 40.17 38.26

GFSFLT2_sfc_wetblb_003.txt.gz
Wetbulb
67.99 68.41 68.98 68.77 68.37 68.45 68.72 68.55 68.16 67.80 67.36 67.14 66.84 66.41 65.52 64.82 64.58 64.04 63.55 63.13 62.69 62.17 61.72 61.60 61.94 62.56 63.03 63.11 63.44 64.41 65.64 65.87
68.41 68.66 68.50 69.09 68.54 67.19 67.60 67.89 67.64 66.98 66.41 65.97 65.89 65.82 65.12 63.91 63.87 63.35 62.77 62.37 61.95 61.25 60.76 60.29 60.32 61.40 61.58 61.48 62.26 63.51 65.59 64.84
68.52 68.42 68.22 68.10 67.44 67.10 65.99 66.47 67.01 66.72 66.59 65.87 66.20 67.92 67.41 66.01 63.63 63.10 62.38 61.90 61.10 60.16 59.29 58.70 59.36 60.49 60.98 60.89 61.66 64.07 63.67 64.28
69.26 69.18 68.74 67.70 65.54 67.09 66.65 66.23 68.01 67.98 68.08 67.93 67.66 67.56 67.16 65.80 64.66 63.92 63.50 62.58 61.89 61.05 60.80 60.99 61.15 61.95 61.93 61.50 62.25 62.06 61.87 62.91
68.69 70.04 69.17 67.52 65.97 67.14 66.92 66.99 67.14 67.77 68.11 68.24 67.65 67.13 67.21 66.37 66.11 65.97 66.37 63.91 64.41 62.96 63.34 63.31 62.68 61.26 60.25 60.60 60.80 60.93 60.28 60.37
68.58 70.02 68.75 68.15 67.56 66.52 66.82 66.23 66.09 66.23 66.72 67.16 66.83 65.58 65.80 65.47 64.29 64.00 63.60 63.01 63.33 63.41 62.72 62.86 61.76 59.05 58.27 58.41 58.66 57.97 56.62 57.78
67.75 69.76 67.73 66.80 67.29 67.99 67.86 67.19 66.58 65.92 66.52 65.99 65.72 64.90 64.71 63.89 63.10 62.06 61.71 61.73 61.82 61.82 61.50 60.85 59.47 57.79 56.93 57.35 57.08 57.11 57.46 57.30
68.07 69.05 67.88 65.92 65.99 66.98 67.42 66.49 65.83 65.41 64.89 63.96 64.54 64.55 64.32 62.63 61.94 61.16 61.04 61.22 61.28 61.18 61.09 60.58 58.93 57.79 57.03 57.17 57.18 56.54 56.90 57.70
67.75 68.82 67.06 64.90 65.30 65.34 65.09 63.31 63.22 63.68 63.52 63.71 63.25 63.41 63.34 63.01 61.84 61.32 61.30 62.23 62.47 61.92 61.29 60.91 59.77 58.63 57.31 56.73 56.85 56.89 56.42 56.47
67.17 67.56 65.34 64.19 64.65 63.79 64.14 63.75 63.84 63.27 63.37 63.57 63.01 63.04 63.07 62.86 61.40 61.32 62.21 62.44 61.19 60.94 59.88 59.36 59.12 58.63 58.27 56.74 56.53 56.67 56.48 56.19
66.12 67.29 63.27 63.08 64.13 63.72 63.72 63.55 62.60 61.83 61.70 61.41 61.79 61.43 61.61 61.50 60.85 61.78 64.16 61.95 62.32 61.96 60.85 60.99 59.31 59.04 58.32 58.32 57.41 56.54 57.29 55.66
65.68 65.91 62.46 62.73 63.90 63.58 61.75 61.53 61.14 61.24 60.59 60.40 60.68 60.75 60.97 60.90 60.50 62.16 62.23 61.16 61.37 61.67 62.26 61.08 60.75 59.80 57.57 57.41 58.88 58.03 57.65 57.59
64.19 63.42 63.04 62.26 61.28 59.48 58.58 58.08 58.94 59.55 59.93 60.20 60.42 59.95 59.10 59.08 58.50 59.48 60.22 59.11 60.54 60.94 60.31 59.64 59.22 60.25 58.80 58.16 58.32 58.52 58.26 56.96
63.04 61.53 59.65 59.61 59.69 58.93 58.85 58.52 58.60 58.94 59.31 58.71 58.54 58.21 57.68 56.95 57.23 56.71 57.81 56.59 58.70 59.10 59.21 57.64 57.82 58.98 56.21 55.82 51.58 54.26 57.00 57.28
59.77 59.21 58.48 58.26 58.51 58.04 57.74 57.99 57.70 56.62 56.59 56.70 57.35 57.59 56.03 55.83 55.64 56.11 57.02 56.90 55.80 57.49 56.91 56.20 53.82 56.12 57.71 54.07 49.20 48.25 53.05 56.25
58.59 57.84 57.21 56.80 57.18 56.60 55.91 54.58 53.53 54.93 55.62 55.91 55.17 55.70 54.59 54.06 54.24 54.49 55.07 55.32 55.36 55.15 53.62 54.91 53.75 51.45 54.00 53.27 54.38 52.13 48.85 48.06
58.24 57.65 56.77 56.73 56.08 55.73 54.97 54.86 55.32 55.87 55.45 54.67 54.41 54.61 53.76 53.13 53.26 53.24 53.47 52.94 53.65 53.64 53.37 51.40 50.82 50.53 49.29 49.75 49.87 49.84 49.93 46.01
57.60 56.53 55.36 55.72 55.31 55.88 55.76 53.45 52.95 51.98 52.32 51.32 51.49 51.72 51.55 52.22 51.44 51.96 52.66 52.47 51.05 50.86 50.90 50.16 48.17 47.84 46.86 45.75 44.12 42.41 41.75 41.68
55.91 55.49 55.40 56.43 56.16 54.93 53.76 53.14 53.26 52.51 51.79 50.88 49.72 49.06 49.36 50.41 50.92 50.81 49.85 50.22 50.31 50.29 48.88 46.12 43.70 41.99 42.71 42.90 43.54 41.37 41.08 39.96
56.48 55.83 54.50 55.43 54.99 54.53 54.70 53.84 52.94 51.95 51.25 49.58 48.38 48.45 49.28 49.78 49.63 49.56 49.36 49.04 48.54 48.02 46.68 46.34 44.75 44.31 42.50 41.80 42.02 41.65 41.28 39.87

GFSFLT2_sfc_wetblb_009.txt.gz
Wetbulb
65.74 66.76 67.70 67.37 67.06 67.14 67.30 67.52 67.52 67.56 67.44 67.42 66.89 66.19 65.94 65.66 64.98 63.77 63.00 62.30 61.30 60.97 60.98 61.38 61.41 62.04 62.61 62.50 62.00 62.43 59.59 60.10
63.62 64.28 64.83 64.59 65.69 66.59 66.56 66.72 66.40 66.13 66.34 66.33 65.71 65.50 65.29 65.44 64.83 64.36 63.39 62.35 61.21 60.44 60.99 61.49 61.14 61.52 61.79 61.89 61.76 61.91 56.56 58.62
62.67 62.82 63.25 63.44 64.20 65.86 66.62 66.82 66.29 65.66 65.81 65.73 64.43 63.59 63.44 63.54 63.55 63.86 63.76 63.24 62.76 62.23 62.00 61.72 61.27 61.14 61.73 61.80 61.76 58.10 57.07 57.45
62.24 62.00 63.80 62.66 64.32 63.95 63.70 64.93 64.81 64.66 64.43 63.86 63.18 62.76 62.89 62.95 63.12 63.54 63.56 63.31 63.21 63.20 62.91 62.15 61.68 58.57 56.04 59.99 57.60 57.18 55.09 55.05
63.27 61.96 61.37 60.44 62.04 62.48 62.56 62.46 62.97 63.18 63.12 61.63 61.78 61.47 62.13 61.18 60.87 61.58 60.40 62.60 60.73 61.52 60.76 59.91 58.98 57.38 55.52 53.00 53.39 52.75 52.38 51.99
63.27 62.68 61.44 61.21 59.19 60.36 59.15 60.58 59.94 62.47 61.53 61.97 60.20 59.40 57.83 58.17 56.87 57.26 57.94 59.43 59.04 58.02 56.71 57.23 56.84 57.38 55.04 52.64 52.26 51.83 52.10 51.32
63.24 62.05 61.17 61.26 61.42 61.11 60.41 60.41 59.75 59.54 60.37 59.95 59.20 58.83 57.09 56.88 56.75 55.81 55.23 55.17 54.63 54.23 54.16 54.92 55.45 55.16 54.06 52.52 51.63 52.09 52.24 51.75
62.58 62.00 62.32 62.29 61.49 61.42 60.49 59.46 58.69 60.13 57.80 58.20 59.17 57.67 56.84 56.67 55.68 56.25 55.15 55.33 55.40 54.44 53.90 53.84 54.32 54.77 54.25 53.33 51.67 51.23 51.67 51.79
62.65 64.32 64.05 61.32 61.15 60.62 60.30 55.99 56.85 56.63 57.08 57.19 57.87 57.46 56.40 56.43 55.64 55.98 56.34 56.33 56.19 54.97 55.04 54.81 53.82 54.75 54.16 53.80 52.83 52.03 51.73 51.70
61.44 62.90 63.29 61.00 59.95 59.18 58.34 57.30 56.47 56.23 56.79 56.72 57.11 57.51 56.90 55.47 54.54 54.39 55.83 56.22 55.74 54.63 54.50 54.00 53.48 52.99 52.43 52.89 52.88 51.94 51.32 51.53
58.14 59.01 61.96 59.79 57.86 57.93 57.25 56.35 55.62 55.26 54.64 54.81 55.25 56.40 55.65 53.65 53.54 53.20 54.14 54.73 54.33 54.15 53.93 53.12 52.42 51.87 52.46 52.36 51.70 51.39 51.57 52.77
58.47 60.35 58.73 57.98 58.51 57.00 55.04 54.10 54.39 54.24 53.39 53.40 54.35 53.70 53.56 51.96 51.54 51.98 52.11 51.60 50.80 50.77 49.78 50.47 49.76 49.97 52.41 52.61 51.05 51.76 51.98 50.90
58.13 57.38 56.90 56.22 53.77 52.70 52.08 51.71 52.02 52.08 52.36 53.90 53.00 52.34 52.64 51.40 50.38 51.13 50.14 49.48 48.47 48.55 48.59 47.89 48.22 48.59 47.16 47.49 47.59 48.76 48.28 48.90
53.98 53.55 53.27 52.76 52.01 51.98 52.31 52.12 51.89 51.15 51.47 52.26 52.86 52.54 51.69 51.67 49.50 49.27 48.94 47.92 46.93 46.17 46.19 46.05 45.63 46.18 43.77 43.50 41.00 43.84 45.21 47.39
51.76 51.45 51.65 52.07 52.28 51.36 50.44 49.89 49.79 50.05 51.00 51.31 52.10 52.07 50.09 48.62 48.00 47.52 47.48 47.02 45.41 44.95 45.72 44.77 43.58 44.34 44.30 42.73 38.95 37.94 39.54 43.26
51.06 51.67 51.66 52.50 51.75 50.09 48.76 47.99 48.24 50.16 49.90 49.35 49.73 48.49 47.94 48.38 47.35 46.29 46.29 45.67 44.80 45.10 47.37 44.20 43.62 41.84 42.95 44.25 41.22 39.89 37.52 34.70
50.40 50.95 51.50 52.24 50.60 49.90 49.56 48.35 48.42 48.70 48.73 45.86 45.35 45.96 46.48 46.92 46.56 45.35 45.15 45.46 44.45 44.11 43.33 42.21 42.11 41.08 40.35 39.94 39.21 38.50 39.23 36.71
50.56 50.54 50.78 51.26 50.62 50.63 48.88 46.97 46.87 45.77 44.54 43.61 43.74 44.00 44.83 44.88 45.78 44.75 44.72 44.10 43.72 43.08 43.02 41.24 40.56 42.11 42.79 42.02 40.58 36.99 35.34 34.35
50.18 50.62 50.75 50.95 49.92 48.91 47.61 45.96 45.11 44.15 43.23 42.55 43.49 44.50 42.66 42.88 42.97 42.46 42.44 42.26 42.49 41.85 41.11 41.10 40.51 39.04 37.88 37.96 38.35 37.57 37.45 36.68
50.13 50.43 50.59 50.36 49.21 47.23 46.27 45.79 45.26 46.27 45.42 44.91 43.55 41.90 41.67 41.93 42.19 42.18 42.15 41.90 41.25 40.04 39.45 39.42 40.90 40.18 39.67 39.20 38.80 39.59 37.96 37.28

GFSFLT2_sfc_wetblb_012.txt.gz
Wetbulb
66.13 67.26 68.02 67.55 66.99 66.97 67.15 67.84 67.70 67.65 67.76 67.23 66.65 66.01 65.94 65.46 64.77 63.80 62.76 61.64 61.03 60.91 61.58 61.52 61.55 61.78 61.78 61.68 61.44 62.31 56.07 57.24
63.42 64.11 64.68 64.45 65.04 66.17 66.26 66.29 66.11 66.47 66.56 65.95 65.20 65.14 65.43 65.54 64.98 64.60 63.84 62.45 62.17 62.21 62.23 62.07 61.63 61.67 61.95 62.13 61.46 60.62 56.08 56.16
61.80 62.31 62.53 63.02 63.48 65.10 66.18 66.19 65.59 65.37 65.42 65.13 63.93 62.84 62.26 62.99 63.56 63.25 64.21 63.39 63.08 63.31 63.00 62.35 61.53 61.37 61.63 61.41 61.46 56.78 55.28 54.90
61.01 61.24 61.56 61.92 64.27 63.90 63.06 64.28 63.73 63.37 63.46 63.02 62.65 62.06 61.66 62.19 62.77 63.57 63.81 63.21 63.41 63.51 63.56 63.32 61.92 58.06 57.34 57.28 54.08 54.29 52.20 52.70
61.36 62.30 61.56 60.55 61.24 61.30 61.27 61.98 62.08 62.46 62.95 62.60 61.81 61.68 60.93 61.80 59.97 60.50 59.59 61.12 59.86 60.26 60.02 58.77 58.35 57.42 56.26 52.81 51.76 51.30 50.52 50.81
60.93 62.14 61.31 59.06 60.51 61.06 61.03 60.81 61.64 61.69 61.86 60.75 58.66 57.95 56.28 56.67 57.22 56.78 56.51 55.75 57.76 57.37 56.69 55.52 55.25 56.16 56.13 53.48 51.54 50.39 50.69 50.89
60.31 59.91 59.53 59.37 59.22 60.42 59.71 59.45 59.97 60.31 59.93 59.24 58.00 57.43 55.36 55.32 54.89 54.63 54.09 53.81 53.35 53.07 52.70 52.92 53.18 53.84 53.95 52.96 51.76 50.70 50.86 51.10
61.96 61.84 61.64 60.81 60.69 60.01 59.43 58.66 57.62 59.15 57.62 57.66 58.10 57.48 55.44 55.44 54.51 54.80 54.60 54.47 54.86 53.74 53.21 52.98 53.47 53.88 53.92 54.00 53.00 50.95 50.03 50.41
61.64 61.50 61.80 60.49 60.82 60.40 58.68 55.99 57.52 56.38 55.67 56.23 56.55 56.07 54.82 54.70 53.90 52.87 53.48 54.12 53.73 53.72 53.35 53.38 52.93 53.39 52.45 52.97 52.99 52.97 51.44 50.41
61.06 62.03 61.61 59.63 59.15 58.33 57.19 55.32 55.20 54.77 55.18 55.43 55.84 55.79 54.39 52.54 51.05 50.62 51.75 52.30 52.20 51.59 51.78 51.21 50.52 50.20 50.15 50.47 50.71 51.37 51.52 50.95
59.72 60.78 59.81 58.92 57.58 56.81 55.62 54.42 54.09 52.96 52.95 53.15 53.47 53.25 52.76 50.66 50.13 50.06 50.89 50.32 49.54 49.69 48.65 48.86 47.98 47.29 48.36 47.94 48.46 49.49 49.97 52.27
58.59 59.50 60.05 57.80 55.29 54.44 53.55 52.42 51.56 51.56 51.35 51.60 52.11 52.69 53.03 50.38 49.72 49.64 49.72 48.48 47.42 46.88 46.06 46.06 46.24 46.15 48.08 47.80 46.36 47.60 47.88 47.27
55.71 55.98 54.51 56.57 52.57 51.99 50.73 49.26 50.07 50.46 52.51 53.67 52.95 52.49 51.59 49.20 48.44 48.45 48.45 46.77 45.59 45.49 45.17 44.85 44.88 45.13 43.38 44.26 43.91 45.06 44.56 44.30
53.70 51.60 51.44 51.26 52.05 51.36 51.60 49.91 51.61 52.06 52.53 52.62 50.83 49.34 49.02 48.98 46.90 45.87 46.61 45.39 44.26 43.74 44.13 43.94 44.25 44.24 42.01 41.39 38.72 41.37 41.73 43.02
49.98 49.99 50.34 50.49 51.76 51.16 50.71 51.10 50.63 50.46 49.93 48.54 48.06 48.19 47.23 46.27 45.50 45.13 44.76 44.49 43.55 43.04 43.87 42.90 41.68 42.80 42.28 41.09 37.29 35.29 37.48 40.53
49.25 50.18 50.01 50.61 50.34 49.34 49.42 48.63 47.97 48.30 47.39 45.44 44.61 45.55 45.76 45.78 45.15 44.15 43.98 44.15 42.87 43.15 44.78 42.66 41.84 40.23 41.23 42.87 40.10 39.59 37.02 34.84
48.33 49.44 49.79 50.13 49.80 49.72 49.03 47.11 45.92 46.33 44.32 43.39 43.52 44.70 45.94 46.11 45.71 44.40 43.15 42.79 41.97 41.36 41.83 40.49 40.46 39.71 39.24 39.11 38.03 37.70 37.86 35.30
47.59 49.26 49.40 49.95 49.09 48.57 46.66 44.99 44.23 42.97 42.31 43.37 44.55 44.79 43.47 44.03 43.87 42.10 41.38 41.06 40.60 40.02 39.58 39.57 39.92 40.60 40.30 39.34 37.92 36.41 35.10 34.01
49.51 49.06 48.19 48.30 46.37 45.08 44.57 43.84 43.47 44.74 44.40 44.01 42.61 43.41 42.56 42.26 41.07 40.57 40.37 40.54 40.19 39.33 38.73 38.43 39.26 40.06 39.76 39.55 40.02 39.31 37.77 38.16
48.40 46.96 45.43 45.67 44.86 44.11 43.98 44.01 45.59 46.04 44.12 43.81 42.69 40.42 39.89 40.73 40.22 39.82 39.62 39.82 39.35 38.78 37.55 37.10 37.31 36.78 36.33 36.21 38.31 38.20 39.47 38.79

GFSFLT2_sfc_wetblb_018.txt.gz
Wetbulb
68.60 68.15 68.53 68.47 67.86 67.79 67.52 67.79 67.85 67.55 67.21 66.91 66.25 65.57 65.26 64.87 64.46 63.72 63.25 63.78 64.10 63.93 63.75 63.84 63.49 63.47 63.33 62.19 61.43 60.48 53.55 54.79
66.49 66.46 65.64 64.95 65.14 66.40 66.49 66.51 66.44 66.60 66.66 65.99 64.88 64.65 64.59 64.55 63.75 63.91 63.83 63.74 63.94 63.90 64.12 64.13 63.65 63.24 62.94 62.24 60.13 57.12 51.87 52.18
62.72 62.86 62.36 61.93 61.99 64.58 65.96 66.19 65.93 65.80 65.66 64.77 62.74 60.55 60.89 61.33 63.46 63.43 64.07 64.15 63.82 63.95 64.18 63.70 63.31 61.70 61.26 61.86 58.46 51.70 50.70 50.94
60.58 60.61 60.53 60.68 63.35 62.28 61.77 62.92 62.84 62.80 62.73 62.18 61.06 60.37 59.98 61.04 61.90 63.09 63.50 63.13 62.80 62.59 62.19 61.84 59.09 56.92 56.60 58.40 54.80 52.62 50.61 50.22
60.58 60.40 59.96 60.01 60.45 60.70 60.30 61.16 61.01 61.26 61.34 60.93 60.78 60.65 59.98 59.79 58.91 57.93 56.85 58.13 55.52 57.06 55.50 55.24 53.82 54.11 55.01 55.25 54.93 53.29 51.07 50.43
59.71 59.32 59.38 59.17 59.29 59.93 59.50 60.13 60.41 60.63 61.10 61.09 59.52 57.87 56.96 57.09 55.41 52.97 52.79 52.83 53.02 52.54 52.44 52.59 52.46 53.01 53.05 52.94 52.82 52.04 51.48 50.74
58.55 59.14 58.46 58.55 58.60 58.91 58.84 59.57 60.55 60.58 60.52 59.71 57.65 54.74 53.78 53.28 52.79 53.08 52.64 52.58 51.90 51.67 51.75 51.39 50.67 50.89 50.47 50.83 51.27 51.50 51.48 50.95
59.27 59.52 58.26 58.15 58.16 59.25 58.36 58.99 59.08 59.95 58.57 56.75 56.68 54.46 53.53 53.18 51.56 50.57 50.61 50.44 50.42 50.55 50.27 49.06 48.40 48.66 48.15 49.17 49.41 49.31 50.31 50.46
59.34 59.24 58.97 58.09 57.76 57.60 57.57 58.62 58.23 56.87 54.91 55.57 54.98 54.41 52.50 50.23 48.96 48.34 49.13 49.60 48.90 48.54 48.39 46.98 46.11 46.92 46.42 46.89 47.21 48.01 47.66 48.79
60.54 59.99 58.36 58.00 57.87 58.06 58.94 55.71 54.22 55.47 53.47 53.45 52.10 51.36 50.03 48.72 48.32 48.16 48.90 48.28 48.75 46.65 46.57 44.72 44.68 44.89 44.52 44.44 44.85 46.04 46.07 47.65
59.49 58.84 58.66 58.99 58.69 58.33 55.57 53.26 51.56 50.25 50.08 51.39 51.24 51.02 50.49 48.91 49.65 49.55 49.24 46.84 44.81 44.75 44.38 44.04 43.63 43.60 44.91 44.58 43.87 43.62 44.86 46.59
59.24 58.68 58.91 58.05 56.78 54.19 51.47 51.74 50.95 51.92 52.75 51.16 49.45 49.82 50.50 48.98 48.77 47.14 45.19 43.82 43.09 42.95 42.72 43.38 43.12 43.30 45.20 44.57 42.97 43.41 44.20 43.58
58.73 58.08 57.48 56.59 51.58 50.85 49.93 49.98 51.77 50.60 47.62 48.85 49.57 47.83 45.75 44.68 44.43 44.00 43.96 42.87 42.12 42.73 42.54 42.27 42.50 42.97 41.30 41.89 41.74 42.00 42.14 41.96
55.49 55.99 53.14 51.26 51.41 50.88 51.48 50.01 48.71 49.50 47.23 45.31 45.27 44.81 44.60 44.55 43.26 42.65 42.66 42.30 41.95 41.77 41.85 40.87 41.37 41.93 39.97 39.08 35.89 38.25 40.49 41.74
49.40 49.46 49.63 50.66 51.49 48.38 47.79 48.10 47.90 46.64 44.06 42.31 43.19 44.09 43.73 43.27 42.86 42.31 41.83 41.34 41.96 41.31 40.30 39.17 38.28 39.57 39.46 38.90 35.41 33.09 36.90 39.16
46.48 47.36 47.43 47.92 47.52 47.22 46.68 45.53 44.70 43.74 41.90 41.24 42.08 43.17 43.26 43.15 43.82 42.05 42.27 41.38 40.45 40.73 40.12 38.29 37.86 36.17 37.99 40.58 38.67 38.74 34.21 32.38
46.12 47.17 46.77 46.77 46.54 46.25 44.62 43.23 42.66 41.84 41.17 41.37 41.56 42.46 44.62 44.85 43.44 41.67 40.55 39.95 38.74 38.02 36.93 36.28 36.60 35.73 36.48 36.70 36.37 36.84 36.37 35.78
46.22 44.85 44.03 44.34 44.32 43.73 43.00 41.93 41.20 40.66 40.82 41.34 42.74 41.99 41.59 42.08 41.31 39.64 39.38 38.61 37.81 37.19 36.31 35.63 35.07 35.36 35.47 35.69 35.39 34.25 32.76 32.87
44.35 43.61 43.06 43.44 43.47 43.29 42.98 42.30 41.58 41.21 41.10 40.92 40.41 40.61 40.46 39.56 38.81 39.33 37.60 38.44 38.07 37.70 36.05 35.09 34.06 33.52 33.26 33.45 34.46 33.96 34.49 34.12
42.85 43.06 42.79 43.17 43.32 42.45 42.02 41.94 41.81 41.93 41.33 40.66 40.64 40.27 39.28 38.90 38.45 37.97 37.57 37.27 37.46 37.67 36.58 36.14 35.56 34.44 33.16 32.48 32.39 33.24 34.12 33.82

GFSFLT2_sfc_wetblb_021.txt.gz
Wetbulb
70.11 70.49 70.12 68.88 68.39 68.18 67.59 67.88 67.85 67.69 67.25 66.97 66.21 65.43 65.36 65.26 64.92 64.35 64.21 65.04 64.77 64.41 64.25 64.30 64.13 63.66 63.36 62.49 60.03 59.02 59.51 59.11
68.33 69.61 69.70 69.88 69.67 67.13 67.04 66.86 66.58 66.60 66.57 65.66 64.73 64.68 64.72 64.45 63.05 64.59 64.69 64.41 64.38 64.41 64.49 64.34 63.88 62.83 62.57 62.37 59.97 58.61 59.50 59.10
66.88 67.57 68.59 68.50 68.13 67.45 66.50 66.69 66.16 65.87 66.01 64.70 63.88 64.80 64.87 64.63 63.60 63.98 64.34 64.20 64.11 63.89 63.70 63.32 61.33 61.13 61.05 61.57 60.55 61.83 60.99 60.08
65.96 67.07 66.77 66.11 65.39 66.47 66.24 65.82 65.97 65.91 65.80 65.61 65.41 65.18 65.19 64.28 63.59 62.75 62.66 61.78 61.50 61.92 61.55 60.57 60.94 61.33 61.66 61.41 61.63 61.44 60.99 60.69
65.83 65.63 65.27 64.57 64.49 65.32 64.57 65.14 65.33 65.46 65.36 65.59 65.75 65.73 65.77 65.87 65.49 63.19 62.37 59.81 61.11 60.74 60.80 60.19 60.03 59.97 59.50 59.35 59.07 59.12 59.01 58.71
64.10 64.16 63.87 63.50 63.94 63.89 63.91 64.43 64.84 65.06 65.78 65.78 66.05 65.08 64.60 64.10 61.22 60.69 60.73 60.37 59.97 59.87 59.81 59.38 58.33 57.34 57.12 57.35 57.46 56.82 57.37 57.60
62.89 62.66 62.59 62.50 62.95 63.16 63.36 63.50 64.23 64.73 64.87 64.43 64.20 62.88 61.50 60.78 60.03 59.08 58.81 58.81 58.26 58.11 57.48 56.67 55.89 55.52 55.14 54.72 54.09 54.77 54.71 54.69
62.50 62.36 62.11 62.18 62.51 62.22 62.18 62.85 62.75 63.10 62.61 62.16 61.89 61.78 60.91 59.72 57.61 57.23 57.49 57.42 56.88 56.69 55.72 54.60 54.05 53.98 53.55 53.41 52.99 53.29 52.95 53.80
62.27 62.16 62.48 61.59 61.23 61.87 60.60 58.45 57.95 58.89 59.71 60.07 59.78 60.23 57.89 56.81 56.65 56.74 56.52 56.11 55.66 55.80 54.31 53.62 53.08 52.54 52.01 52.04 52.03 52.47 51.64 53.03
62.35 61.52 61.28 61.30 61.27 61.39 60.48 58.09 57.55 57.10 57.38 57.10 56.40 56.06 56.66 56.82 54.85 54.87 54.20 53.12 53.02 51.37 52.23 51.40 50.82 50.45 50.42 50.63 51.35 50.96 51.23 52.23
61.28 62.22 62.13 61.64 60.29 59.64 58.01 55.62 54.36 53.76 55.34 55.93 56.06 55.50 55.42 54.08 51.71 52.13 52.58 51.81 51.23 50.87 50.76 50.30 49.06 49.25 48.74 49.47 50.15 49.15 50.32 51.82
61.67 61.39 59.69 59.56 57.39 56.01 54.44 54.69 54.92 55.52 54.68 53.10 53.63 53.01 53.06 52.84 51.46 51.65 51.45 50.74 50.24 50.61 50.04 50.09 49.33 48.23 46.84 47.51 48.05 48.48 50.39 51.13
60.82 59.81 58.98 56.62 54.23 53.86 54.97 54.93 54.61 51.74 51.81 51.86 51.87 51.41 51.27 51.46 50.70 50.54 50.75 50.19 49.53 49.34 49.18 47.67 46.98 47.82 45.23 44.82 45.42 48.62 49.62 48.67
60.23 60.04 59.74 56.12 56.17 56.78 57.90 56.71 54.75 51.57 50.84 50.54 50.63 50.63 50.58 50.08 50.78 50.51 50.13 49.47 49.05 47.91 47.44 45.89 45.69 46.60 42.53 41.81 39.66 42.49 47.29 46.45
58.73 56.47 56.10 56.12 56.92 55.76 54.79 54.74 53.48 52.16 49.96 49.37 49.44 49.84 49.84 49.86 49.79 49.74 49.12 48.59 47.39 46.49 45.69 44.06 41.56 43.79 43.95 41.46 37.63 36.47 39.02 43.18
54.77 54.23 53.87 53.05 53.52 54.16 53.31 52.69 51.80 49.63 49.51 49.95 50.11 49.56 49.26 49.10 49.04 48.64 48.23 47.55 46.23 45.75 44.51 43.24 41.86 38.93 41.11 42.97 41.86 40.44 35.33 34.23
52.52 51.87 51.86 52.02 52.19 52.26 51.41 49.91 49.39 49.50 49.57 48.43 49.20 49.34 49.16 48.84 48.44 47.54 46.68 46.60 45.84 44.55 43.79 43.06 43.05 40.72 39.34 38.91 38.83 38.94 38.78 35.79
51.20 50.42 49.83 50.87 51.18 50.99 50.60 49.60 48.87 49.15 48.79 48.74 49.33 49.59 49.22 48.61 47.48 46.72 46.25 45.42 44.62 44.22 43.64 41.99 41.60 40.74 40.21 39.24 37.49 35.93 35.02 34.99
50.06 50.16 49.03 50.24 50.29 49.94 49.68 49.33 48.76 48.51 48.55 48.35 48.05 48.19 48.48 47.95 47.02 45.24 44.13 44.16 43.86 43.61 42.92 42.16 41.35 40.04 39.75 39.01 39.59 38.69 38.65 37.16
49.69 49.79 49.02 49.19 49.11 48.68 48.73 48.54 48.73 48.77 48.46 47.95 47.26 46.70 46.27 46.29 46.06 44.53 43.74 43.52 43.59 43.68 42.95 42.43 42.10 41.18 40.25 39.63 38.62 38.88 39.32 38.15

GFSFLT2_sfc_wetblb_024.txt.gz
Wetbulb
70.40 70.28 69.72 68.62 68.42 67.89 67.74 68.04 68.16 67.75 67.56 66.78 65.96 65.83 65.86 65.45 64.71 64.46 64.65 64.66 64.82 64.70 64.64 64.59 63.95 63.42 62.90 62.21 59.26 59.57 62.20 61.44
70.53 70.45 70.47 70.45 70.36 67.20 67.33 66.97 66.83 66.91 66.59 65.68 65.00 65.11 65.06 64.44 64.88 64.92 64.74 64.53 64.51 64.79 64.37 63.67 62.48 62.42 62.42 62.19 61.23 60.46 62.39 62.13
69.14 69.91 69.80 70.10 69.51 68.47 66.70 66.74 66.34 66.13 65.78 64.97 64.34 67.45 66.98 65.81 63.76 64.19 64.22 63.38 63.34 63.36 62.99 61.60 61.60 62.16 62.16 61.74 62.24 61.65 62.03 61.70
67.52 69.32 69.31 69.12 67.00 67.04 66.26 65.56 66.64 67.87 67.57 67.35 68.69 68.40 68.07 66.24 64.79 62.51 61.44 60.92 61.65 61.32 60.61 61.13 62.57 62.02 61.74 62.62 61.10 61.40 60.93 60.93
66.90 68.27 68.37 66.75 66.03 65.46 65.30 66.18 67.69 68.24 68.57 69.03 68.96 68.76 69.33 68.76 66.99 65.30 66.16 61.49 65.01 64.15 64.15 62.08 61.61 61.07 60.56 60.53 60.36 59.90 59.73 59.88
67.20 67.22 66.45 66.09 65.17 64.68 65.41 66.77 68.22 68.59 68.42 68.77 69.04 67.84 68.73 68.24 65.23 65.75 65.64 64.94 64.12 63.38 62.55 61.70 60.55 59.61 59.20 58.78 58.30 58.06 57.77 57.52
65.14 65.53 65.25 65.27 65.27 65.94 66.64 66.88 66.69 67.12 67.65 67.50 67.18 66.18 66.77 65.38 65.32 64.72 63.60 63.52 62.04 61.56 60.95 59.98 58.88 58.41 58.15 57.21 56.48 56.72 56.65 56.03
65.08 64.55 64.92 65.63 66.07 66.52 66.18 65.55 64.34 63.79 64.92 63.95 63.39 63.03 64.44 65.19 64.03 63.09 63.10 61.56 61.00 60.13 58.99 57.85 57.42 57.33 56.72 56.59 56.14 56.24 56.17 55.82
65.26 65.24 65.45 65.58 65.50 65.01 63.69 62.43 61.51 61.42 62.39 62.53 61.28 61.68 61.87 62.80 62.15 62.26 60.80 60.15 59.08 58.38 57.66 57.18 56.28 55.72 55.36 55.51 55.22 55.84 55.42 55.15
65.51 64.54 63.93 65.15 64.39 63.26 61.47 61.12 61.75 60.66 60.94 60.22 58.59 58.23 59.44 60.51 58.69 57.61 57.52 56.98 56.39 55.97 55.51 54.66 54.59 54.40 54.15 54.28 54.24 55.22 54.79 54.46
64.91 65.22 63.85 61.97 60.80 61.72 61.84 59.30 58.22 57.32 57.81 57.85 56.73 56.64 57.24 56.80 56.78 56.25 56.41 55.93 55.26 54.61 54.56 54.19 53.44 53.49 52.94 52.31 52.43 52.66 51.83 50.85
64.32 63.82 62.26 62.04 61.25 61.79 57.91 56.83 56.34 58.38 57.59 56.86 57.19 57.44 56.76 57.32 56.45 55.40 55.44 54.86 54.79 54.58 53.81 53.74 52.43 51.62 49.77 48.43 49.84 49.86 50.36 51.33
63.41 62.23 63.79 63.04 61.56 59.68 58.13 57.83 57.59 56.66 57.05 56.40 56.17 55.76 55.40 55.57 56.00 55.53 55.16 53.91 53.13 52.62 51.60 50.58 49.61 50.49 48.24 47.55 48.00 49.47 50.74 51.11
63.18 63.65 64.29 63.73 62.11 60.67 60.34 59.80 59.34 57.43 56.61 55.73 55.47 55.06 54.65 54.48 54.13 53.49 53.33 51.63 51.66 51.48 50.43 48.95 48.82 48.84 45.24 44.24 42.01 44.79 47.27 48.47
63.85 63.86 63.46 60.81 60.78 60.65 60.09 59.24 56.94 56.36 56.42 56.48 54.72 54.74 54.20 53.47 52.73 52.39 51.63 51.07 49.46 50.28 49.44 47.60 45.23 45.99 45.60 42.91 39.98 38.68 41.53 44.63
61.73 60.49 59.79 59.58 59.03 58.21 57.42 57.68 56.30 55.38 55.77 55.16 55.42 54.14 52.81 51.93 52.10 52.31 51.77 50.92 49.85 49.20 47.56 46.63 45.16 42.99 44.09 44.36 43.93 42.48 37.87 36.90
59.16 58.48 57.62 57.88 58.17 58.02 56.53 54.90 54.27 54.12 54.52 52.46 53.32 53.07 52.70 52.45 52.09 52.00 51.54 50.61 49.40 47.33 46.28 45.68 45.02 43.43 42.87 41.81 41.73 41.23 41.11 37.76
57.36 56.63 55.99 56.36 55.97 55.26 54.10 52.48 50.75 51.14 51.01 50.56 50.45 50.93 51.42 51.91 51.50 51.48 50.88 49.77 47.91 47.21 46.98 45.79 44.84 43.53 42.51 41.64 39.87 38.11 37.55 36.70
56.02 55.43 54.42 54.66 53.65 52.42 51.88 51.22 50.79 49.05 49.32 49.48 49.23 48.21 48.12 48.51 49.06 48.64 49.16 49.08 47.40 47.73 46.19 45.16 44.38 42.82 42.08 41.19 41.13 40.02 39.45 37.96
55.22 54.75 52.82 52.17 51.31 51.20 51.02 50.02 51.22 50.43 49.31 47.81 47.03 46.70 46.31 46.91 46.84 47.67 48.70 48.46 47.75 47.01 45.83 43.93 43.66 42.24 42.00 41.80 40.97 40.28 39.70 39.34

GFSFLT2_sfc_wetblb_027.txt.gz
Wetbulb
68.81 68.95 68.84 68.39 68.03 68.02 67.73 68.06 68.04 67.80 67.32 66.60 65.99 66.30 66.16 65.48 64.91 64.80 64.91 65.03 64.94 65.07 64.69 63.87 63.25 63.22 62.91 62.82 62.19 62.55 62.48 62.23
68.90 69.26 69.41 69.57 68.79 67.09 66.90 66.92 66.82 66.94 66.16 65.60 65.32 65.32 65.24 64.90 65.60 65.08 64.89 64.56 64.56 64.53 64.05 63.17 62.51 62.75 62.84 62.49 63.25 63.22 61.66 61.59
68.49 68.38 68.92 69.02 67.86 66.91 66.67 66.97 66.68 65.99 65.04 64.76 63.93 66.20 66.09 65.84 64.30 64.24 63.24 62.23 63.00 62.78 62.16 62.33 62.93 62.68 62.78 62.22 62.21 60.99 60.97 60.64
68.10 68.69 69.05 68.33 66.17 66.19 65.27 65.08 65.81 66.60 66.57 66.59 67.27 67.27 67.50 65.72 64.41 63.20 61.34 61.20 62.14 61.88 61.67 62.98 62.96 62.21 61.81 62.99 60.75 60.61 59.95 59.69
67.36 68.06 68.15 66.75 65.96 65.06 64.30 65.62 66.88 67.55 67.97 68.08 68.11 67.67 67.91 66.93 66.38 64.56 65.31 62.99 64.16 63.34 63.35 62.41 62.11 61.44 60.65 60.45 59.73 59.49 59.03 58.46
67.76 67.24 66.56 66.15 64.59 64.01 65.01 66.27 67.13 67.51 67.97 68.22 67.71 66.70 67.33 66.33 64.65 64.09 64.32 63.88 63.16 63.06 62.23 62.10 61.60 60.80 59.87 59.47 58.94 58.19 57.89 57.62
65.58 65.81 65.32 64.85 65.14 65.47 67.06 67.10 68.24 67.86 67.74 67.54 67.31 65.89 66.35 64.96 64.97 63.72 63.44 62.95 62.66 62.14 61.80 61.03 60.10 59.64 59.04 58.16 57.47 57.70 57.65 57.08
64.95 64.21 64.75 65.46 66.38 66.80 66.80 65.98 65.02 64.65 65.02 65.49 65.97 64.39 65.30 62.90 61.97 60.48 62.36 62.31 62.12 61.05 59.80 58.63 58.11 58.09 57.25 57.65 56.71 56.77 56.83 57.13
64.76 65.04 66.60 66.68 65.70 65.04 64.68 64.05 62.40 62.19 63.54 64.21 64.02 62.83 62.56 60.66 59.32 59.83 61.16 59.30 59.46 58.64 58.08 57.32 56.66 56.69 56.12 56.16 56.01 55.60 55.19 56.04
65.53 65.24 65.79 66.09 63.82 61.77 60.94 61.60 62.73 62.21 62.23 61.64 59.41 58.93 58.58 59.15 58.33 57.29 57.46 57.89 57.50 56.83 56.21 55.58 55.63 55.18 54.92 54.92 54.37 53.33 53.42 53.87
65.18 65.25 64.97 62.44 61.26 61.73 61.99 62.40 61.84 59.36 58.63 58.62 57.62 58.00 58.46 58.14 58.00 57.75 57.94 57.06 56.87 56.45 56.04 55.48 54.35 53.82 52.53 52.31 52.27 50.63 51.27 50.45
65.30 64.44 63.55 62.92 62.92 61.77 62.06 59.66 59.41 59.01 58.60 58.74 59.35 59.05 58.56 59.09 57.73 57.29 57.28 56.35 56.06 55.60 54.34 53.81 52.57 51.27 49.24 49.43 51.02 50.25 51.00 50.79
64.49 63.33 63.39 63.94 62.84 61.67 60.90 59.58 59.61 59.44 59.76 58.76 58.46 58.13 57.16 57.52 57.33 56.88 56.32 54.87 53.81 53.92 52.61 50.82 49.17 50.12 48.08 47.45 47.74 49.84 50.82 49.86
64.37 63.48 63.79 64.35 63.12 63.00 62.30 61.04 60.18 59.39 58.59 58.18 57.76 57.08 56.63 55.92 55.55 54.74 53.95 52.47 51.75 50.90 50.90 48.83 48.39 49.03 45.17 44.25 40.87 43.35 46.65 48.33
63.49 63.54 63.92 63.86 62.68 61.90 61.53 61.11 58.88 57.56 57.41 57.30 56.50 56.22 55.29 54.69 53.99 53.03 52.46 51.60 49.93 50.20 49.88 48.34 45.43 47.06 47.63 43.81 39.21 37.72 40.81 43.96
63.32 62.78 62.99 61.79 61.74 60.52 59.38 57.89 56.10 57.73 57.44 56.64 56.64 55.35 53.96 53.08 52.45 52.59 52.13 51.35 50.43 49.93 49.31 47.95 46.61 43.99 45.67 45.74 45.15 42.79 37.55 36.48
63.31 61.98 60.90 60.61 59.93 59.90 59.07 57.47 56.88 56.26 55.54 53.26 53.37 53.63 52.96 52.73 52.79 52.35 51.61 50.63 50.28 49.53 48.46 47.47 47.06 44.60 43.02 43.10 42.28 41.58 41.33 37.68
60.55 59.52 58.69 59.09 58.92 58.25 56.94 54.99 52.70 51.88 51.26 50.72 51.17 51.27 51.18 50.74 50.02 49.91 49.41 49.09 49.31 48.82 48.80 47.65 45.84 44.63 44.57 42.59 40.68 38.54 37.59 36.54
58.57 57.88 56.90 57.24 56.37 54.56 53.35 51.95 51.46 50.16 50.46 50.42 48.65 47.91 47.78 48.06 47.99 47.49 47.22 47.87 48.49 48.95 47.65 46.54 45.56 44.40 43.84 42.39 41.68 40.41 40.71 39.03
57.32 56.92 56.09 55.27 53.59 52.47 52.31 50.96 50.58 50.66 49.94 48.85 48.11 47.09 46.65 47.31 47.03 46.79 46.87 47.48 47.59 47.83 46.72 45.53 45.75 45.16 43.73 42.91 41.62 41.31 41.08 40.06

GFSFLT2_sfc_wetblb_030.txt.gz
Wetbulb
66.81 67.42 68.53 67.81 67.38 67.41 67.34 67.43 67.15 66.71 66.57 66.36 66.32 66.10 65.91 66.22 66.31 66.08 65.78 65.78 65.52 65.11 64.69 63.76 63.64 63.63 63.00 62.96 62.68 63.19 59.17 59.70
66.71 67.16 67.81 66.70 66.00 66.56 66.48 66.55 66.07 65.63 65.68 65.39 64.85 65.01 65.40 65.85 65.72 65.49 65.10 64.65 64.46 64.33 64.09 63.17 63.59 62.70 62.76 61.90 62.30 62.42 57.13 57.86
66.11 66.28 66.98 65.89 65.59 66.09 66.34 66.67 65.73 64.87 64.76 64.99 63.70 63.55 63.53 64.63 64.43 64.55 63.80 63.64 64.10 63.91 63.18 62.30 63.57 63.25 63.37 63.26 62.23 57.15 57.04 56.68
65.60 66.45 66.88 65.69 63.79 64.12 64.09 64.25 63.29 63.41 63.47 63.29 64.26 65.73 64.34 64.42 63.92 63.78 62.72 62.55 63.25 63.09 62.52 62.90 62.63 58.67 58.18 60.26 56.62 56.86 55.72 55.23
65.76 65.32 65.89 63.85 63.53 63.44 63.45 63.91 65.24 65.30 65.99 66.32 66.11 66.60 65.49 63.80 63.79 61.17 60.75 61.76 62.12 60.26 61.22 59.91 59.40 58.49 57.18 56.88 56.45 55.14 54.10 54.31
65.89 65.39 65.11 63.63 63.57 62.62 62.73 65.10 64.99 66.32 66.24 66.33 65.60 64.94 64.60 63.65 62.03 62.13 61.76 61.01 60.49 60.38 60.03 59.74 58.91 58.15 56.88 56.50 55.77 54.27 54.18 53.83
64.02 64.42 63.95 63.60 64.25 65.04 65.42 65.66 66.09 66.52 65.99 65.25 65.64 64.07 63.46 63.35 61.88 59.79 59.38 59.82 59.70 58.70 57.82 57.15 55.69 55.16 55.91 54.96 54.58 54.25 54.01 53.69
63.52 63.44 64.13 64.45 65.41 65.31 64.46 64.18 63.89 63.46 63.18 64.25 64.67 63.30 62.65 61.43 59.88 59.15 59.49 57.52 56.87 55.98 54.77 54.21 54.42 54.99 54.11 54.61 54.43 53.62 52.48 51.97
62.69 62.55 64.00 64.92 64.39 63.56 62.83 61.97 61.89 61.88 62.49 63.15 62.80 61.26 60.29 59.41 58.59 56.48 55.87 56.26 54.82 54.51 54.45 54.32 53.54 54.00 52.80 52.83 52.45 51.65 49.43 49.69
62.86 63.85 64.56 63.89 62.39 61.90 60.37 60.99 61.89 61.10 60.71 59.03 58.45 58.63 58.97 56.34 56.35 55.88 55.72 55.71 54.74 53.59 53.59 52.50 51.89 51.65 50.37 49.40 48.94 48.41 48.03 48.41
63.93 64.76 63.37 62.20 61.94 62.28 62.03 62.19 59.59 58.72 58.29 57.51 57.41 57.44 57.74 56.88 56.39 55.82 55.35 54.39 54.00 53.98 52.31 51.22 49.07 48.14 47.71 45.90 46.56 46.23 46.80 48.22
63.87 64.56 63.43 62.61 62.23 61.93 61.41 60.06 59.05 58.67 58.20 57.30 57.71 57.53 57.65 56.88 55.27 54.33 54.43 53.53 52.18 51.55 50.54 49.66 47.34 45.97 47.46 46.60 45.68 45.39 45.27 45.91
63.49 62.83 62.59 62.19 61.47 60.52 59.41 57.94 58.11 58.32 58.25 58.18 57.58 56.69 56.12 55.46 54.66 53.96 53.28 51.13 50.17 48.99 47.38 46.43 45.47 45.94 43.36 42.48 42.46 43.01 42.78 43.89
62.43 62.15 62.11 62.82 62.71 61.65 60.91 59.17 58.56 58.23 57.08 56.58 56.38 55.74 54.93 54.84 52.98 51.73 50.52 48.77 47.99 48.00 46.77 44.98 44.48 44.72 41.27 40.34 37.15 38.97 41.25 41.97
62.32 62.33 62.68 63.08 63.11 62.07 60.67 59.65 57.05 55.46 55.26 54.82 54.51 54.88 53.92 52.67 51.56 50.15 49.27 48.65 47.12 47.11 45.96 44.68 41.43 42.34 43.32 39.60 35.85 33.52 36.62 38.98
63.46 63.22 63.32 63.37 62.45 60.00 58.37 56.39 54.07 55.36 55.55 54.46 53.81 54.23 52.66 51.58 50.81 49.96 49.52 48.59 47.28 46.66 46.54 43.96 42.76 40.35 41.36 43.35 40.52 38.08 33.68 32.32
63.62 63.54 62.64 60.83 60.16 59.44 58.04 55.24 55.46 54.52 53.11 51.89 51.44 52.26 52.15 51.05 50.25 48.44 47.16 46.92 46.75 46.52 45.58 43.74 43.04 40.88 39.51 39.17 39.03 37.04 36.13 32.74
62.32 61.76 59.28 59.44 58.54 58.45 57.02 54.51 52.28 50.62 49.95 49.40 50.11 49.25 48.70 48.27 47.56 45.74 45.68 45.12 44.73 44.75 45.22 45.39 41.85 41.31 40.90 39.82 38.15 35.01 33.75 32.34
59.43 58.24 57.02 57.67 56.72 54.84 52.96 51.43 50.74 49.69 49.41 48.69 46.32 45.87 45.30 45.30 44.94 44.35 43.71 44.16 44.58 44.71 44.21 42.83 42.09 40.79 40.22 39.64 39.49 38.39 38.22 36.01
57.63 56.66 55.86 55.63 54.12 52.41 51.88 51.37 49.34 48.79 48.67 46.63 46.29 45.14 44.18 44.66 44.05 43.98 43.80 43.80 43.48 43.57 43.41 42.84 42.40 40.88 40.28 40.05 40.13 39.63 40.24 37.29

GFSFLT2_sfc_wetblb_033.txt.gz
Wetbulb
66.37 67.12 67.74 67.50 67.00 66.64 66.20 66.24 66.37 66.41 66.51 66.45 66.34 65.86 66.13 66.56 66.43 66.46 66.19 65.97 65.55 64.70 63.44 62.87 62.92 63.08 63.39 62.58 61.69 62.01 56.45 56.94
66.06 66.89 66.49 65.66 65.49 65.80 65.79 65.42 65.55 65.41 65.53 65.24 64.89 64.93 65.53 65.81 65.53 65.53 65.08 64.81 64.61 64.15 63.58 62.57 62.14 61.81 62.38 62.35 60.45 59.44 53.66 55.49
64.75 65.29 65.13 64.51 64.20 65.49 65.37 65.41 64.80 64.56 64.55 64.34 63.23 62.08 62.73 63.97 63.86 64.14 63.77 63.33 63.31 63.46 62.97 62.08 62.55 62.30 62.44 62.46 59.38 53.92 53.48 54.30
60.55 64.25 64.23 63.32 64.25 63.06 62.69 62.89 61.90 61.41 61.81 62.05 61.23 61.53 61.62 62.53 62.96 63.56 62.90 62.45 62.67 62.67 62.92 62.00 60.23 56.25 55.55 57.85 53.91 53.14 52.69 52.73
61.57 63.64 64.00 61.11 61.89 61.08 61.29 61.29 60.41 61.08 61.35 61.45 63.01 63.40 61.43 61.57 61.77 60.11 58.15 61.45 59.17 59.59 60.34 58.90 56.46 55.32 54.41 53.80 53.34 52.33 51.45 51.52
62.87 64.55 62.61 61.14 61.79 60.79 60.92 61.95 63.68 63.88 64.16 63.89 62.49 62.46 61.30 60.52 58.86 59.27 59.22 58.42 56.98 56.43 55.44 54.67 53.20 53.77 53.59 52.65 52.61 51.45 52.02 51.32
63.34 63.16 61.11 61.34 60.04 62.52 63.48 63.35 63.41 63.47 62.47 63.24 61.89 61.06 59.90 59.01 57.50 57.22 55.97 55.83 55.45 53.34 53.93 52.13 52.23 52.92 52.56 52.63 52.47 51.63 49.94 49.52
61.68 60.99 60.22 62.30 63.02 62.82 62.80 61.64 60.85 60.98 61.53 62.36 61.62 60.81 58.37 57.20 56.02 54.87 53.90 53.54 53.87 52.56 52.91 51.95 51.11 51.29 51.32 51.38 50.39 49.14 46.96 46.58
60.09 59.77 62.63 62.56 61.09 60.35 59.59 59.48 59.50 59.80 60.91 60.40 58.03 58.03 56.30 55.54 53.77 53.23 52.86 52.75 52.45 51.76 51.34 50.77 50.26 51.28 49.80 48.64 47.93 46.30 46.18 46.39
59.66 62.78 61.26 60.11 59.80 58.81 58.34 58.74 58.72 58.85 56.83 56.05 56.11 56.39 54.62 53.92 53.22 52.35 52.52 53.27 51.04 51.12 50.25 49.16 48.02 46.62 45.26 44.25 44.63 44.95 45.28 44.64
59.48 61.97 60.13 59.17 59.03 58.42 59.42 57.60 56.66 55.88 55.27 54.01 54.83 55.40 55.61 53.66 52.57 51.48 52.25 51.38 50.66 50.06 48.62 47.57 44.85 43.78 44.28 42.84 43.01 42.83 42.24 45.17
62.01 61.14 59.60 59.70 59.23 58.84 58.58 55.84 55.19 55.65 54.60 53.90 54.83 54.71 55.09 52.64 51.66 51.26 50.79 49.36 47.37 47.00 46.19 45.69 44.16 42.96 45.63 43.56 40.77 41.22 41.09 40.80
61.53 60.31 59.78 59.35 58.42 57.28 56.61 55.22 54.28 54.20 54.11 54.72 54.35 53.26 52.72 51.40 50.36 48.77 47.86 46.89 45.16 45.34 44.01 42.96 42.52 42.13 39.87 39.43 39.92 40.04 40.67 39.15
61.09 60.33 59.61 59.83 59.20 59.23 58.06 55.08 54.45 53.68 53.03 52.71 52.71 51.86 51.67 51.35 48.85 47.33 46.60 45.62 44.82 44.34 43.16 42.02 41.42 40.72 37.75 37.39 34.30 36.45 38.33 39.00
60.51 60.21 60.03 60.36 60.44 59.53 57.53 54.39 52.31 51.17 50.66 50.32 50.86 51.29 50.61 49.56 47.98 46.68 45.95 45.47 44.08 43.45 42.58 40.86 38.68 39.79 40.08 37.44 33.20 31.14 33.36 35.81
60.34 60.43 60.28 60.47 60.64 57.56 54.45 51.42 50.24 50.34 50.59 50.00 49.68 50.56 49.48 48.57 47.62 46.46 45.60 45.00 43.53 43.53 44.13 41.21 39.65 37.89 38.85 41.17 37.49 35.55 31.20 29.40
60.57 60.52 60.46 60.95 61.08 57.13 55.38 51.17 49.98 50.17 50.20 49.34 49.08 48.65 49.25 46.16 44.81 43.02 42.11 42.29 41.54 41.60 41.71 41.76 40.42 38.78 37.57 37.16 36.33 35.37 33.73 30.47
59.65 60.18 60.04 59.38 56.12 55.24 52.43 50.72 47.80 46.35 45.38 45.58 46.75 44.95 43.89 43.67 43.15 41.77 41.40 40.85 40.71 40.74 40.50 41.12 39.55 38.94 40.38 39.55 36.51 34.49 32.56 30.91
58.88 58.00 54.54 53.59 50.95 48.95 47.59 46.44 46.12 45.17 45.11 43.92 43.47 42.92 41.83 41.05 42.27 41.94 40.26 40.44 40.39 40.30 40.41 40.24 40.01 38.74 38.20 37.97 38.18 36.88 36.27 35.56
57.16 53.28 52.33 51.18 48.75 47.14 46.47 46.02 45.47 45.47 43.98 42.95 44.16 43.27 43.30 42.40 42.12 40.42 40.39 40.52 40.03 39.71 39.25 39.58 39.84 38.73 37.73 37.58 37.86 37.99 37.88 37.76

GFSFLT2_sfc_wetblb_039.txt.gz
Wetbulb
65.28 65.89 67.30 66.86 66.39 66.35 66.55 67.25 67.35 67.14 66.99 66.81 66.60 66.35 66.00 66.17 66.14 66.01 65.54 64.99 64.40 64.02 63.76 64.00 63.40 62.46 62.40 62.13 61.06 60.54 55.40 56.88
61.82 62.68 63.17 64.04 63.99 65.56 66.00 66.22 66.51 66.52 66.41 65.70 65.33 65.61 65.62 65.67 65.49 65.54 65.20 64.96 64.04 63.64 63.73 63.95 63.08 62.34 61.12 60.93 60.31 57.76 53.13 53.46
61.51 62.56 61.63 62.94 63.61 64.42 65.35 66.19 65.80 65.35 65.19 64.84 63.00 61.87 61.73 61.21 63.37 63.92 64.05 63.78 63.34 63.65 62.99 61.54 61.32 61.35 60.74 59.09 55.76 52.22 51.27 51.09
60.51 61.37 61.10 63.23 63.69 62.02 61.13 62.80 61.75 61.51 60.98 60.46 60.26 60.02 60.49 61.30 62.36 62.23 62.37 62.37 62.47 62.56 61.39 59.96 56.24 52.67 52.42 53.75 49.33 49.62 49.14 50.61
59.33 60.51 62.70 62.14 61.22 60.36 59.54 59.31 59.47 59.88 60.25 59.51 59.78 60.47 60.65 59.48 59.25 56.81 56.23 59.53 55.91 54.46 52.97 52.22 51.51 50.90 50.31 49.47 48.45 47.12 45.68 46.74
59.45 62.95 62.37 60.49 60.24 59.34 58.97 58.19 58.86 59.41 59.34 59.56 59.68 60.08 59.23 58.62 57.18 56.36 54.87 53.53 52.17 51.29 51.02 51.18 50.60 50.43 49.19 48.26 46.10 44.46 43.86 44.51
60.59 61.91 61.70 59.55 58.78 58.53 58.45 59.03 61.09 61.99 61.88 61.95 60.49 59.23 56.10 56.30 54.59 53.54 52.41 51.69 50.73 50.16 50.41 50.21 49.40 48.21 47.24 45.67 44.64 44.08 43.38 43.03
60.72 60.95 61.87 59.12 58.33 58.47 60.03 61.51 61.09 60.37 59.87 59.63 59.03 56.92 55.36 53.32 51.88 51.11 50.47 50.55 50.32 49.94 48.83 47.17 46.02 45.49 45.18 44.83 43.72 42.69 41.99 42.11
59.70 60.94 59.50 58.84 59.41 60.20 60.20 60.26 59.68 59.25 59.30 58.97 57.47 56.01 54.14 51.90 50.81 50.46 50.18 50.07 49.73 48.59 47.19 45.58 44.43 44.69 42.64 43.13 42.37 41.27 41.00 40.93
60.63 62.25 59.30 59.62 59.07 58.81 58.21 57.86 58.04 57.80 56.70 56.42 55.81 54.99 53.17 51.37 50.95 50.87 50.16 49.68 48.53 47.19 46.25 43.97 42.83 42.50 40.51 40.46 40.74 40.35 40.28 39.96
59.34 59.88 59.12 57.94 57.06 57.20 57.04 57.38 56.44 55.42 54.81 54.33 54.03 53.64 52.98 50.82 50.39 49.57 48.58 47.31 46.62 47.02 44.64 43.16 41.21 41.16 41.95 39.93 38.96 38.40 38.34 40.49
59.63 59.03 57.60 57.06 57.34 56.24 55.62 56.28 55.34 53.93 52.77 53.24 53.89 53.09 52.22 50.72 49.24 47.59 45.91 44.58 43.69 43.27 41.85 41.56 41.22 40.29 42.57 40.19 37.85 37.67 37.34 36.67
58.67 57.70 57.20 57.51 56.97 55.28 53.40 52.99 52.88 52.36 52.07 53.01 53.21 52.69 51.25 48.81 47.17 45.67 44.89 44.32 42.89 42.68 41.76 40.79 39.40 38.68 37.59 37.72 37.00 37.09 36.11 35.83
58.11 57.99 56.99 57.29 57.44 54.86 54.32 53.21 53.03 52.50 52.05 52.31 51.42 51.44 49.25 47.43 45.72 44.62 44.39 43.57 42.85 41.90 41.14 40.16 39.94 38.74 36.53 34.73 32.13 34.89 36.27 36.37
58.39 58.05 57.28 57.36 57.09 55.86 53.49 52.04 50.76 50.01 49.99 49.17 49.35 49.87 48.88 47.19 45.54 44.52 43.59 43.31 42.11 41.25 40.48 40.19 38.05 38.29 38.50 37.24 31.80 29.75 32.01 34.34
58.73 58.28 57.36 57.53 57.83 55.91 52.86 51.31 50.63 49.41 49.26 48.33 48.40 49.28 48.01 46.50 45.29 44.41 43.21 42.24 40.85 41.47 41.19 39.07 38.17 37.17 37.30 39.22 35.65 34.46 31.19 29.71
58.41 58.36 58.08 58.13 57.97 57.01 53.64 51.12 49.76 49.04 48.17 47.64 46.35 45.48 45.44 45.02 43.17 41.59 41.88 41.21 41.86 40.63 38.78 38.46 38.32 36.85 36.02 35.52 34.94 33.93 32.70 30.94
58.14 58.21 58.09 57.98 57.85 56.90 53.79 51.49 49.35 48.83 46.88 45.67 44.60 42.46 41.94 41.91 41.54 42.19 42.06 41.94 41.62 38.69 38.28 38.62 38.30 37.32 36.83 36.39 35.46 34.34 32.84 31.41
58.46 58.35 57.89 57.87 57.47 56.42 53.16 51.91 49.96 50.29 47.97 46.47 42.11 40.60 40.60 40.76 41.34 42.11 42.15 40.94 40.27 39.84 37.63 37.45 38.63 37.48 37.05 36.33 36.11 36.12 35.67 33.69
58.12 58.23 58.06 57.08 56.32 55.10 52.15 50.65 49.86 49.82 47.72 45.23 44.26 43.07 42.42 42.56 42.30 42.01 42.15 41.29 40.61 39.77 38.78 38.87 37.14 36.32 35.85 35.35 35.60 35.60 36.00 35.66